Location: Unspecified
(54.1780°N, 0.0000°E)
Time: 04:32:59
(UTC+00:00)

Transit 2A - Pass Details

Date: 23 June 2019
Orbit: 597 x 962 km, 66.7° (Epoch: 21 August)

Event Time Altitude Azimuth Distance (km) Brightness Sun altitude
Rises 05:04:38 0° 300° (WNW) 3,611 9.1 10.9°
Reaches altitude 10° 05:07:44 10° 313° (NW) 2,628 8.6 11.3°
Maximum altitude 05:12:43 25° 7° (N) 1,703 8.3 12.0°
Drops below altitude 10° 05:17:24 10° 62° (ENE) 2,448 11.7 12.6°
Sets 05:20:11 0° 76° (ENE) 3,315 11.2 13.0°
